Location: Newark
(42.8481°N, 0.4872°E)
Time: 08:39:03
(UTC+00:00)

Transit 2A Rocket - Pass Details

Date: 01 November 2020
Orbit: 588 x 914 km, 66.7° (Epoch: 29 November)

Event Time Altitude Azimuth Distance (km) Brightness Sun altitude
Rises 16:38:09 0° 333° (NNW) 3,292 8.4 1.2°
Reaches altitude 10° 16:40:50 10° 341° (NNW) 2,303 7.5 0.7°
Maximum altitude 16:45:44 40° 50° (NE) 1,055 5.4 -0.1°
Drops below altitude 10° 16:50:12 10° 120° (ESE) 2,092 6.9 -0.9°
Sets 16:52:32 0° 128° (SE) 2,955 7.7 -1.3°
